Flag for U.S.A. Weather past 2 weeks in Tyler, Texas, U.S.A.

Now
98 °F

Scattered clouds.


Feels Like: 101 °F
Forecast: 74 / 98 °F
Wind: 8 mph from Southwest

Location: Tyler Pounds Field

Current Time: Aug 4, 2015 at 3:49:53 PM

Latest Report: Aug 4, 2015 at 2:53 PM


Visibility: 10 mi

Pressure: 29.92 "Hg

Humidity: 33%

Dew point: 64 °F

Location of TylerLocation

Historic Weather in Tyler — Graph

°F

Tyler temperature yesterday

Maximum temperature yesterday: 99 °F (at 4:53 PM)
Minimum temperature yesterday: 74 °F (at 4:53 AM)
Average temperature yesterday: 86 °F

Past Weeks' High & Low Weather Summary

 TemperatureHumidityPressure
High103 °F (Jul 30, 2:53 PM)85% (Jul 21, 4:53 AM)30.07 "Hg (Jul 21, 4:53 AM)
Low73 °F (Aug 1, 6:53 AM)23% (Aug 2, 5:53 PM)29.80 "Hg (Jul 21, 6:53 PM)
Average87 °F54%29.93 "Hg
* Reported Jul 20 1:53 PM — Aug 4 1:53 PM, Tyler, Weather by CustomWeather, © 2015

Note: Actual official high and low records may vary slightly from our data, if they occured in-between our weather recording intervals... More about our weather records

Advertising

Tyler weather history for previous 24 hours

 ConditionsComfort  
Time TempWeatherWind HumidityBarometerVisibility
1:53 PM
Tue, Aug 4
97 °FScattered clouds.3 mph34%29.93 "Hg10 mi
12:53 PM93 °FScattered clouds.7 mph41%29.96 "Hg10 mi
11:53 AM92 °FSunny.9 mph46%29.96 "Hg10 mi
10:53 AM90 °FSunny.No wind54%29.97 "Hg10 mi
9:53 AM86 °FSunny.6 mph61%29.97 "Hg10 mi
8:53 AM83 °FSunny.7 mph65%29.96 "Hg10 mi
7:53 AM78 °FSunny.5 mph71%29.95 "Hg10 mi
6:53 AM74 °FClear.5 mph79%29.93 "Hg10 mi
5:53 AM75 °FClear.5 mph74%29.91 "Hg10 mi
4:53 AM76 °FClear.3 mph72%29.90 "Hg10 mi
3:53 AM76 °FClear.5 mph72%29.90 "Hg10 mi
2:53 AM78 °FClear.No wind66%29.90 "Hg10 mi
1:53 AM79 °FClear.3 mph62%29.88 "Hg10 mi
12:53 AM79 °FClear.No wind65%29.88 "Hg10 mi
11:53 PM
Mon, Aug 3
80 °FClear.5 mph58%29.88 "Hg10 mi
10:53 PM83 °FClear.3 mph53%29.88 "Hg10 mi
9:53 PM85 °FClear.6 mph48%29.87 "Hg10 mi
8:53 PM88 °FSunny.5 mph42%29.85 "Hg10 mi
7:53 PM94 °FSunny.6 mph32%29.85 "Hg10 mi
6:53 PM97 °FSunny.6 mph29%29.85 "Hg10 mi
5:53 PM98 °FScattered clouds.8 mph28%29.85 "Hg10 mi
4:53 PM99 °FScattered clouds.9 mph28%29.87 "Hg10 mi
3:53 PM98 °FScattered clouds.6 mph28%29.88 "Hg10 mi
Weather by CustomWeather, © 2015

See weather overviewHow to use our weather pages